CAPE
0 0 0 0 0 0 0 0 0 0 0 0 0 0 0 0 0 0 0 0 0 0 0 0 0 0 0 22 912 1228 1543 1813 1722 1824 1842 1933 1863 1838 1596 1563 1560 1528 1485 1394 1495 1658 1849 2005 2084 2175 2129 2152 2090 1853 1630 1466 917 837 777 831 697 703 736 678 698 726 628 702 775 708 734 614 612 641 744 824 895 972 959 995 866 891 864 902 914 926
0 0 0 0 0 0 0 0 0 0 0 0 0 0 0 0 0 0 0 0 0 0 0 0 0 0 0 2 626 1258 1326 1252 1646 1729 1864 1791 1801 1729 1609 1535 1490 1512 1406 1344 1497 1744 1845 2067 2196 2167 2176 2198 2078 1776 1623 1369 950 935 958 817 736 692 894 851 832 717 860 848 786 824 621 584 653 594 625 754 809 991 950 880 810 830 897 927 897 832
0 0 0 0 0 0 0 0 0 0 0 0 0 0 0 0 0 0 0 0 0 0 0 0 0 0 0 0 501 1058 972 1305 1499 1604 1721 1714 1726 1670 1575 1474 1408 1431 1351 1398 1510 1704 1975 2107 2241 2296 2229 2203 2024 1685 1638 1314 995 875 810 985 751 849 872 881 732 636 588 836 811 802 600 630 596 553 701 905 951 952 872 807 861 880 908 831 708 712
0 0 0 0 0 0 0 0 0 0 0 0 0 0 0 0 0 0 0 0 0 0 0 0 0 0 16 2 362 892 1039 1234 1587 1574 1692 1795 1710 1651 1500 1434 1434 1436 1316 1431 1611 1754 1889 2122 2210 2372 2306 2181 1913 1624 1618 1353 1033 935 926 925 880 846 803 706 746 785 530 355 365 631 709 723 677 739 781 857 756 681 648 750 784 773 659 586 614 676
0 0 0 0 0 0 0 0 0 0 0 0 0 0 0 0 0 0 0 0 0 0 0 0 0 0 0 3 130 603 1044 1190 1510 1658 1788 1788 1749 1613 1577 1514 1494 1544 1377 1440 1650 1838 1929 2012 2183 2316 2286 2131 1814 1607 1617 1460 1263 1122 1064 1080 999 768 631 803 510 344 252 365 513 649 694 802 752 753 733 746 606 622 709 648 663 626 549 486 492 432
0 0 0 0 0 0 0 0 0 0 0 0 0 0 0 0 0 0 0 0 0 0 0 0 0 0 2 0 0 462 640 806 1086 1392 1414 1542 1551 1495 1438 1438 1596 1646 1360 1355 1559 1779 1897 1996 2072 2168 2026 1927 1810 1688 1598 1588 1488 1300 1214 1167 1097 658 554 365 217 389 786 499 503 689 602 681 658 699 734 672 596 544 616 643 593 537 494 436 416 399
0 0 0 0 0 0 0 0 0 0 0 0 0 0 0 0 0 0 0 0 0 0 0 0 0 0 0 0 37 322 467 630 1017 1161 1429 1337 1353 1483 1420 1479 1562 1540 1498 1299 1430 1554 1768 1973 2072 2085 1923 1848 1822 1713 1628 1575 1565 1434 1286 1195 1037 651 631 155 491 590 579 619 579 675 707 670 636 665 563 473 402 526 604 613 564 478 452 398 377 377
0 0 0 0 0 0 0 0 0 0 0 0 0 0 0 0 0 0 0 0 0 0 0 0 0 0 0 0 0 178 297 474 667 846 1063 1165 1276 1358 1426 1551 1545 1561 1482 1400 1294 1459 1555 1836 2055 2057 1961 1916 1806 1680 1720 1693 1628 1480 1355 1105 940 583 636 551 483 799 640 639 724 697 697 652 554 536 567 469 468 458 596 666 586 452 347 312 240 66
0 0 0 0 0 0 0 0 0 0 0 0 0 0 0 0 0 0 0 0 0 0 0 0 0 0 0 0 2 96 131 184 237 455 677 881 1155 1293 1366 1488 1369 1392 1338 1276 1234 1399 1513 1692 1958 2029 2020 1983 1903 1833 1870 1793 1652 1478 1303 1009 811 446 658 557 572 580 665 803 830 712 661 601 495 471 557 524 450 475 524 600 481 402 351 256 50 121
0 1 0 0 0 0 0 0 0 0 0 0 0 0 0 0 0 0 0 0 0 0 0 0 0 0 0 0 2 46 2 66 181 406 540 594 728 995 1142 1228 1284 1371 1354 1354 1216 1229 1418 1673 1866 1945 2033 2060 1990 1917 1927 1865 1699 1484 1130 829 906 640 571 663 572 671 750 816 764 617 628 496 513 572 592 588 534 460 514 467 380 309 312 192 163 214
0 0 0 0 0 0 0 0 0 0 0 0 0 0 0 0 0 0 0 0 0 0 0 0 0 0 0 0 0 10 0 212 428 588 652 633 688 910 1003 1152 1105 1267 1305 1362 1320 1308 1321 1604 1869 1818 1962 2037 1967 1947 1974 1905 1683 1433 1252 1152 897 804 728 674 595 524 675 755 637 608 612 626 606 538 530 549 513 472 395 353 328 294 268 185 203 256
0 0 0 0 0 0 0 0 0 0 0 0 0 0 0 0 0 0 0 0 0 0 0 0 0 0 0 0 0 69 193 225 524 685 789 833 852 902 945 974 972 988 1217 1319 1347 1335 1309 1482 1726 1735 1789 1943 1921 1968 2017 1856 1593 1399 1248 1139 1117 997 809 643 543 559 646 750 702 598 612 732 700 646 573 563 469 430 374 323 333 312 269 202 253 230
0 0 0 0 0 0 0 0 0 0 0 0 0 0 0 0 0 0 0 0 0 0 0 0 0 0 0 0 0 1 219 310 434 587 747 844 908 910 874 734 768 904 1191 1286 1382 1397 1314 1356 1688 1695 1749 1857 2010 2045 1962 1644 1503 1358 1279 1112 1014 852 734 580 624 710 829 879 794 795 732 747 677 535 526 526 471 437 400 383 360 329 224 277 203 140
0 0 0 0 0 0 0 0 0 0 0 0 0 0 0 0 0 0 0 0 0 0 0 0 0 0 0 0 0 0 137 453 482 506 605 717 911 923 814 790 815 1007 1115 1256 1385 1418 1271 1265 1779 1786 1740 1885 2025 2042 1864 1602 1416 1326 1139 1050 918 808 706 566 653 738 762 790 820 856 878 795 597 683 555 498 589 500 474 415 344 305 296 232 187 20
18 0 0 0 0 0 0 0 0 0 0 0 0 0 0 0 0 0 0 0 0 0 0 0 0 0 0 0 0 0 7 289 538 555 662 417 675 910 764 747 910 1076 1236 1342 1377 1460 1431 1270 1759 1769 1760 1904 1996 2036 1840 1619 1350 1280 940 784 822 766 698 503 574 635 662 713 829 898 958 786 634 641 559 537 521 525 436 391 319 315 292 65 34 0
5 0 0 0 0 0 0 0 0 0 0 0 0 0 0 0 0 0 0 0 0 0 0 0 0 0 0 0 0 0 0 0 110 330 459 629 744 888 838 873 994 1047 1165 1312 1404 1491 1391 1274 1767 1812 1757 1861 1982 1963 1843 1594 1310 1160 874 804 817 859 834 624 505 604 730 798 883 830 742 714 605 541 579 542 508 460 418 370 325 334 274 168 0 0
0 0 0 0 0 0 0 0 0 0 0 0 0 0 0 0 0 0 0 0 0 0 0 0 0 0 0 0 137 44 19 0 2 248 473 765 834 918 966 1004 1139 1176 1241 1353 1404 1492 1343 1211 1657 1810 1688 1732 1869 1908 1845 1529 1283 1041 888 861 912 913 833 679 630 681 718 748 863 797 712 545 626 647 605 580 527 503 424 339 331 304 229 60 0 0
0 0 0 0 0 0 0 0 0 0 0 0 0 0 0 0 0 0 0 0 0 0 0 0 0 0 0 0 314 222 142 283 117 376 559 1012 975 1003 1134 1184 1189 1200 1272 1322 1394 1518 1505 1276 1318 1639 1590 1541 1730 1740 1759 1473 1247 1061 880 922 916 776 758 729 749 744 710 720 756 825 670 506 552 576 533 546 611 579 468 444 324 208 225 142 0 0
0 0 0 0 0 0 0 0 0 0 0 0 0 0 0 0 0 0 0 0 0 0 0 0 0 0 0 0 27 86 261 538 541 708 842 975 1000 1090 1187 1204 1177 1324 1338 1348 1465 1484 1355 1324 1241 1401 1394 1442 1550 1650 1625 1446 1241 1009 886 864 888 863 732 710 557 597 666 659 663 710 562 532 501 501 500 569 598 581 572 507 264 254 179 0 0 0
0 0 0 0 0 0 0 0 0 0 0 0 0 0 0 0 0 0 0 0 0 0 0 0 0 0 0 0 47 1 436 772 892 802 880 1012 1074 1215 1229 1157 1176 1270 1348 1405 1482 1559 1432 1330 1298 1301 1273 1334 1454 1474 1425 1288 1125 1049 882 818 933 874 779 724 546 597 647 586 593 671 543 509 538 499 548 588 562 629 595 514 247 254 20 0 0 0
0 0 0 0 0 0 0 0 0 0 0 0 0 0 0 0 0 0 0 0 0 0 0 0 0 0 0 0 1 88 510 796 955 899 1036 1160 1212 1258 1239 1251 1309 1308 1455 1495 1477 1484 1350 1294 1275 1206 1235 1256 1350 1302 1336 1197 1137 1082 952 860 821 750 666 670 565 512 511 493 585 566 498 454 500 517 456 506 535 626 596 382 184 218 0 0 0 0
0 0 0 0 0 0 0 0 0 0 0 0 0 0 0 0 0 0 0 0 0 0 0 0 0 0 0 0 0 0 490 796 938 1233 1192 1201 1207 1214 1336 1299 1441 1420 1500 1555 1507 1513 1408 1327 1353 1324 1215 1245 1235 1248 1303 1243 1144 1117 1017 947 855 720 498 578 576 444 480 466 484 510 480 445 465 437 388 521 607 674 468 11 229 265 3 0 0 0
2 0 0 0 0 0 0 0 0 0 0 0 0 0 0 0 0 0 0 0 0 0 0 0 0 0 0 0 0 0 0 315 886 980 1122 1077 1091 1195 1286 1315 1358 1468 1554 1562 1486 1479 1392 1349 1334 1307 1216 1205 1184 1163 1174 1177 1220 1189 1084 936 828 717 624 447 532 468 402 421 461 562 508 407 319 387 504 571 616 411 154 51 318 266 83 0 0 0
2 0 0 0 0 0 0 0 0 0 0 0 0 0 0 0 0 0 0 0 0 0 0 0 0 0 0 0 0 0 38 329 790 844 998 1060 1155 1248 1342 1265 1361 1535 1544 1589 1507 1470 1361 1294 1232 1186 1175 1205 1176 1004 968 1092 1266 1269 1126 890 775 686 732 727 506 542 536 472 521 603 568 469 443 392 499 568 445 142 79 133 331 220 0 0 0 0
0 0 0 0 0 0 0 0 0 0 0 0 0 0 0 0 0 0 0 0 0 0 0 0 0 0 0 0 329 362 272 516 753 939 1091 1105 1186 1356 1296 1265 1397 1571 1639 1577 1519 1400 1345 1286 1243 1171 1139 1185 1164 1000 897 1094 1327 1285 1162 898 779 768 845 784 615 580 470 546 515 563 670 649 527 504 524 434 145 103 143 124 137 2 0 0 0 0
9 5 1 0 0 0 0 0 0 0 0 0 0 0 0 0 0 0 0 0 0 0 0 0 0 0 0 213 653 733 600 780 870 949 1210 1279 1359 1417 1425 1456 1512 1571 1618 1548 1437 1348 1347 1315 1257 1206 1140 1120 1052 947 940 1093 1194 1259 1202 1030 931 944 947 790 776 670 425 529 484 521 615 493 548 496 144 18 136 201 122 47 9 0 0 0 0 0
9 5 3 0 0 0 0 0 0 0 0 0 0 0 0 0 0 0 0 0 0 0 0 0 0 0 0 874 464 755 938 886 882 1038 1245 1292 1459 1484 1520 1527 1608 1588 1605 1544 1464 1409 1304 1301 1274 1235 1170 1094 1005 968 993 1059 1096 1207 1193 1131 981 984 947 782 880 708 426 500 516 426 427 448 406 208 172 257 238 146 135 32 0 0 1 0 0 0
0 0 0 0 0 0 0 0 0 0 0 0 0 0 0 0 0 0 0 0 1 0 0 0 0 0 0 221 663 696 792 805 868 1152 1247 1340 1480 1449 1471 1561 1485 1597 1558 1577 1472 1348 1278 1317 1300 1258 1219 1125 1027 1008 1019 1042 1035 1183 1137 1028 879 808 811 898 911 798 567 456 464 406 320 192 0 196 260 215 277 236 21 0 0 0 0 0 0 0
0 0 0 0 0 0 0 0 0 0 0 0 0 0 0 0 0 0 0 2 0 0 0 36 0 0 0 2 429 695 671 785 912 1153 1326 1483 1448 1559 1508 1546 1588 1566 1547 1502 1390 1309 1288 1373 1343 1266 1190 1074 963 979 1004 1047 1075 1140 1063 944 845 625 851 988 923 848 501 238 235 252 282 284 368 325 241 298 281 12 0 0 0 0 0 0 0 0
0 0 0 0 0 0 0 0 0 0 0 0 0 0 0 0 0 0 0 0 0 10 0 0 0 0 30 48 11 384 486 664 955 1244 1513 1568 1505 1469 1437 1513 1680 1589 1535 1466 1355 1290 1222 1308 1398 1296 1155 1002 1038 996 1012 1086 1180 1203 986 858 668 625 924 926 889 574 361 177 210 346 425 434 321 244 253 268 41 0 0 0 0 0 0 0 0 0
0 0 0 0 0 0 0 0 0 0 0 0 0 0 0 0 0 0 0 0 0 0 1 8 54 115 58 8 47 214 488 720 1015 1263 1417 1542 1579 1553 1462 1446 1723 1628 1575 1514 1408 1235 1172 1211 1175 1155 1045 919 999 1036 1055 1113 1259 1251 1049 876 740 859 888 820 601 601 498 224 276 410 392 299 254 241 309 271 0 0 0 0 0 0 0 0 0 0
0 0 0 0 0 0 0 0 0 0 0 0 0 0 0 0 0 0 0 0 0 0 80 167 177 63 126 78 51 286 772 930 1149 1326 1485 1582 1597 1533 1459 1500 1618 1693 1572 1496 1404 1310 1062 986 934 864 898 965 956 1008 1116 1213 1209 1230 1184 986 848 852 708 550 592 611 458 292 145 189 206 163 242 381 386 76 0 0 0 0 0 0 0 0 0 0
0 0 0 0 0 0 0 0 0 0 0 0 0 0 0 0 0 0 0 0 0 25 4 0 1 13 14 104 196 425 829 961 1180 1390 1520 1606 1558 1551 1471 1464 1576 1476 1513 1490 1394 1290 1182 1088 1174 1213 1077 1012 1044 1107 1077 1065 1125 1140 1090 1091 888 785 527 472 484 500 381 150 209 227 189 179 366 432 337 0 0 0 0 0 0 0 0 0 0 0
0 0 0 0 0 0 0 0 0 0 0 0 0 0 0 0 0 0 0 1 0 18 25 15 3 0 122 166 578 537 736 932 1207 1386 1608 1682 1704 1616 1550 1653 1474 1513 1516 1434 1419 1334 1183 908 806 902 919 1042 1062 1092 1048 954 1021 999 981 978 870 758 498 410 329 276 195 143 210 265 235 257 381 390 280 0 0 0 0 0 0 0 0 0 0 0
0 0 0 0 0 0 0 0 0 0 0 0 0 0 0 0 0 1 0 0 12 4 14 70 188 122 227 282 394 548 686 881 1203 1409 1650 1789 1770 1668 1716 1643 1701 1539 1470 1350 1346 1200 998 812 877 959 1015 1070 1178 1133 826 832 884 899 825 813 799 788 627 523 367 304 264 171 113 209 221 232 402 387 86 0 0 0 0 0 0 0 0 0 0 7
0 0 0 0 1 0 0 0 0 0 1 0 0 0 0 0 0 32 11 6 4 54 7 58 130 149 279 485 372 406 610 718 1167 1426 1624 1796 1903 1859 1770 1673 1617 1541 1521 1372 1284 1190 1130 986 890 890 1007 1139 1109 929 794 681 748 795 734 701 671 628 773 709 478 406 344 311 280 249 223 245 451 366 49 0 0 0 0 0 0 0 0 0 0 0
3 0 2 0 0 0 0 0 0 0 0 0 0 0 0 10 0 30 0 22 1 78 47 31 150 303 606 529 544 530 638 868 1045 1130 1384 1583 1885 1850 1782 1734 1683 1632 1541 1403 1278 1292 1258 1072 919 881 934 962 987 958 887 781 565 565 628 690 681 719 776 710 581 534 412 368 346 329 205 148 157 378 10 0 0 0 0 0 0 0 0 0 19 51
2 0 0 21 0 0 0 0 0 0 2 0 0 0 0 0 0 0 53 19 0 108 96 21 209 528 695 672 618 700 943 1017 1037 1195 1245 1536 1734 1850 1801 1836 1756 1706 1620 1394 1266 1297 1209 1094 956 920 936 849 803 863 854 762 691 557 716 784 787 668 731 558 533 561 502 474 442 383 184 152 105 35 0 0 0 0 0 0 0 0 0 0 0 5
0 0 0 0 0 0 2 0 0 0 0 0 8 16 0 0 0 0 18 38 10 191 114 76 478 548 764 742 740 853 1233 1582 1460 1359 1341 1343 1702 1778 1755 1820 1734 1634 1534 1366 1154 1180 1184 1164 1066 1027 976 780 697 782 753 658 690 697 626 540 533 573 587 594 575 448 492 335 232 311 388 325 190 118 50 5 0 0 0 0 0 0 0 0 8 4
0 0 0 0 0 0 0 3 0 0 4 34 11 4 0 0 0 0 4 26 77 184 108 143 494 599 816 842 874 882 615 398 702 635 1064 1415 1626 1745 1762 1663 1609 1512 1288 1208 1156 1129 1129 1117 1043 944 918 861 812 798 771 718 733 755 654 148 360 462 509 514 462 348 68 164 0 0 128 141 138 57 69 72 26 12 3 4 14 21 6 18 5 0
0 0 3 0 0 0 4 0 2 9 0 1 4 8 1 0 0 5 8 215 167 161 96 152 520 645 840 1001 822 815 334 454 405 453 805 1335 1478 1566 1583 1560 1533 1362 1303 1266 1260 1171 1080 1012 961 933 927 935 906 842 792 736 703 692 571 307 436 414 430 438 436 25 0 214 21 45 127 154 132 105 80 74 69 82 112 72 44 55 48 9 0 0
0 0 4 4 2 0 0 2 4 84 76 6 4 13 0 0 0 20 226 158 222 282 182 250 428 589 749 1019 918 681 427 486 478 531 873 1159 1352 1384 1372 1393 1380 1366 1348 1323 1270 1204 1174 1123 1079 1037 983 971 973 952 874 779 702 593 557 477 377 417 428 446 426 231 133 162 123 70 4 66 114 95 67 74 97 120 113 50 12 9 4 0 0 0
0 2 0 8 7 1 0 0 6 74 31 256 61 24 22 20 149 203 192 199 229 207 251 307 437 587 705 851 810 606 497 494 511 710 957 1141 1206 1249 1276 1329 1374 1360 1315 1292 1279 1255 1214 1193 1152 1119 1076 1015 1006 1005 963 868 809 747 665 546 459 312 495 235 191 42 103 159 0 0 0 0 0 9 36 37 35 25 23 7 0 0 0 0 0 0
0 4 4 4 4 19 0 33 186 396 265 128 28 244 189 228 235 225 289 266 172 249 304 319 370 557 674 1017 862 761 692 634 631 710 943 1154 1198 1228 1289 1328 1359 1356 1332 1288 1262 1244 1256 1239 1176 1160 1121 1052 992 978 975 935 894 842 767 571 227 84 297 139 121 59 43 150 135 36 0 0 0 9 159 13 24 8 0 0 0 3 0 0 0 0
0 1 0 1 5 2 144 229 293 301 279 283 260 240 211 191 186 176 212 257 282 232 260 403 403 357 464 704 834 806 840 766 748 630 690 808 1049 1199 1251 1274 1309 1325 1318 1298 1286 1258 1212 1197 1214 1184 1133 1062 1029 990 960 941 907 885 915 641 469 89 120 130 70 49 100 77 47 137 182 148 121 141 144 34 10 4 8 0 2 0 0 0 0 0
0 0 51 277 350 415 417 432 376 357 348 311 289 266 264 250 211 212 280 482 255 238 259 429 274 376 344 438 880 730 804 574 647 663 654 632 721 996 1166 1242 1279 1291 1285 1269 1221 1204 1192 1130 1078 1102 1129 1119 1077 1057 1025 1024 977 908 778 761 586 354 282 184 56 102 68 70 161 101 4 43 0 98 30 19 11 3 0 0 2 0 0 0 0 0
0 0 37 359 199 259 382 426 431 401 350 347 353 300 291 289 265 250 350 329 287 205 248 193 200 228 269 435 743 756 721 336 464 589 612 646 675 723 978 1132 1219 1232 1234 1220 1183 1110 1104 1056 1058 1050 1065 1083 1074 1061 1068 1057 964 832 768 709 338 283 301 338 129 169 214 227 186 81 0 0 0 10 42 29 8 2 2 2 1 0 0 0 0 0
0 0 106 45 3 244 360 504 461 454 396 352 367 366 344 286 265 275 246 216 174 138 139 142 179 200 210 321 288 505 526 221 310 369 544 656 733 806 766 898 1021 1148 1131 1140 1142 1081 1007 999 979 988 992 1008 1055 1061 998 914 822 756 650 487 417 314 275 270 271 299 48 54 16 0 0 1 14 24 29 20 10 5 2 1 0 0 0 0 0 0
76 0 109 0 150 477 454 502 482 400 348 364 333 329 335 317 279 229 238 200 164 138 152 168 182 204 219 210 211 216 242 228 218 215 290 435 675 818 849 662 807 958 993 1024 1020 1035 1003 925 891 904 893 968 967 901 902 715 717 753 581 519 360 260 284 240 193 94 58 72 150 120 0 1 9 16 19 21 0 0 0 0 0 0 0 0 0 0
42 95 0 0 279 369 335 307 260 428 418 384 258 251 214 212 250 236 210 261 197 175 174 166 171 194 210 204 222 220 221 248 251 243 211 327 453 625 824 772 664 790 813 835 862 876 904 891 854 844 813 780 785 724 656 655 679 643 425 49 238 293 260 230 186 226 210 124 88 85 3 3 7 28 34 0 0 0 0 0 0 0 0 0 0 0
271 50 0 2 109 192 180 209 39 4 266 352 344 301 268 259 255 242 244 231 170 184 187 160 176 176 189 198 216 213 214 237 246 240 254 238 364 498 602 672 692 613 671 735 807 791 796 779 820 840 909 880 799 784 825 808 635 496 503 341 311 269 274 188 176 218 179 121 54 28 67 76 61 52 27 0 0 0 0 0 0 0 0 0 0 0
Wind_Speed
nan nan nan nan nan nan nan nan nan nan nan nan nan nan nan nan nan nan nan nan nan nan nan nan nan nan nan nan 36 34 33 30 28 28 28 26 24 24 19 17 13 9 10 14 13 16 14 14 15 13 12 12 14 17 19 19 19 19 20 21 21 20 19 19 20 20 21 22 24 25 25 29 31 29 28 27 24 23 22 22 23 24 24 26 27 27
nan nan nan nan nan nan nan nan nan nan nan nan nan nan nan nan nan nan nan nan nan nan nan nan nan nan nan nan 34 36 32 28 26 26 24 22 22 21 16 14 11 11 19 18 20 18 16 16 15 14 12 13 15 18 19 19 20 20 20 20 21 20 19 20 21 22 21 25 25 25 25 28 28 26 24 25 24 23 23 24 25 25 25 26 27 26
nan nan nan nan nan nan nan nan nan nan nan nan nan nan nan nan nan nan nan nan nan nan nan nan nan nan nan nan 36 34 31 28 25 22 22 20 20 20 17 14 13 15 15 19 19 18 16 16 14 12 12 12 15 18 19 20 21 20 19 19 21 20 20 21 24 25 25 27 30 25 23 24 26 25 25 26 26 25 25 26 26 26 25 26 26 26
nan nan nan nan nan nan nan nan nan nan nan nan nan nan nan nan nan nan nan nan nan nan nan nan nan nan nan nan 37 33 30 30 29 25 24 26 22 19 17 17 16 12 15 17 18 15 16 16 13 11 10 12 16 19 21 21 21 19 18 18 20 20 22 24 26 29 32 33 32 24 21 22 25 27 28 30 29 28 28 28 26 26 25 26 27 26
nan nan nan nan nan nan nan nan nan nan nan nan nan nan nan nan nan nan nan nan nan nan nan nan nan nan nan nan 39 34 35 39 33 28 28 32 28 23 24 23 17 13 14 18 16 14 14 13 11 9 11 14 17 20 22 22 19 17 17 18 21 23 26 26 30 34 32 30 26 26 26 27 31 32 31 32 30 30 29 28 27 26 26 27 28 27
nan nan nan nan nan nan nan nan nan nan nan nan nan nan nan nan nan nan nan nan nan nan nan nan nan nan nan nan nan 36 34 32 32 29 25 22 23 25 21 16 16 19 17 17 14 12 13 13 13 11 11 15 19 21 22 20 17 16 16 18 22 25 28 29 33 33 26 22 25 25 24 25 27 30 30 29 28 27 27 28 28 29 28 28 29 28
nan nan nan nan nan nan nan nan nan nan nan nan nan nan nan nan nan nan nan nan nan nan nan nan nan nan nan nan nan 35 32 27 30 28 26 25 22 20 15 14 17 15 16 16 14 13 13 12 11 10 14 19 22 23 22 19 16 16 16 19 25 30 30 31 32 26 21 23 23 21 22 25 26 28 27 27 26 26 27 28 30 30 29 30 30 29
nan nan nan nan nan nan nan nan nan nan nan nan nan nan nan nan nan nan nan nan nan nan nan nan nan nan nan nan nan 32 29 26 25 26 24 23 19 13 11 17 18 17 14 13 12 12 12 12 10 11 17 21 23 23 21 18 18 18 18 22 31 32 30 31 30 21 20 21 22 21 22 23 24 23 23 24 26 26 28 30 30 30 29 29 28 nan
nan nan nan nan nan nan nan nan nan nan nan nan nan nan nan nan nan nan nan nan nan nan nan nan nan nan nan nan nan nan 32 27 22 19 18 16 14 11 12 16 14 13 11 13 13 12 13 13 13 14 19 22 25 24 20 19 20 21 24 29 33 31 30 29 26 23 20 20 22 21 22 21 21 22 24 25 25 28 29 32 30 30 29 29 nan 27
nan nan nan nan nan nan nan nan nan nan nan nan nan nan nan nan nan nan nan nan nan nan nan nan nan nan nan nan nan nan nan nan 23 18 15 12 10 9 12 13 11 13 12 12 14 15 14 16 19 18 23 25 25 23 23 24 24 25 27 30 29 26 27 28 23 19 19 22 22 22 20 22 23 23 25 26 28 30 30 29 30 29 29 28 27 26
nan nan nan nan nan nan nan nan nan nan nan nan nan nan nan nan nan nan nan nan nan nan nan nan nan nan nan nan nan nan nan 27 23 18 16 14 14 15 13 10 10 11 14 15 14 16 16 19 20 20 25 26 26 24 25 25 26 26 28 28 25 23 24 22 20 20 21 21 22 21 21 24 26 26 28 27 27 27 28 27 28 27 26 26 26 24
nan nan nan nan nan nan nan nan nan nan nan nan nan nan nan nan nan nan nan nan nan nan nan nan nan nan nan nan nan nan 28 20 19 14 11 10 10 12 13 11 9 11 13 13 15 16 17 19 20 23 25 25 24 25 25 25 26 27 26 24 23 23 23 21 18 17 18 18 20 22 22 24 24 26 27 26 24 23 26 26 26 23 24 26 24 24
nan nan nan nan nan nan nan nan nan nan nan nan nan nan nan nan nan nan nan nan nan nan nan nan nan nan nan nan nan nan 23 19 15 15 12 10 11 14 16 12 11 10 10 12 14 18 17 19 22 24 24 22 23 23 25 26 27 26 25 25 26 25 24 21 16 16 18 18 19 21 22 23 24 24 26 26 24 24 24 22 22 21 23 23 22 23
nan nan nan nan nan nan nan nan nan nan nan nan nan nan nan nan nan nan nan nan nan nan nan nan nan nan nan nan nan nan 18 16 13 13 17 19 19 19 17 15 12 10 9 11 14 17 16 19 23 24 23 21 23 24 26 26 27 25 25 26 26 26 25 21 16 18 20 18 19 21 21 23 22 23 25 24 24 22 22 22 22 21 22 22 23 nan
nan nan nan nan nan nan nan nan nan nan nan nan nan nan nan nan nan nan nan nan nan nan nan nan nan nan nan nan nan nan nan 18 21 26 36 36 29 25 22 19 14 11 10 12 14 16 18 20 23 23 23 22 24 25 25 25 25 26 25 25 25 24 23 15 18 19 19 18 21 19 20 21 19 22 24 23 21 20 22 24 23 21 22 nan nan nan
nan nan nan nan nan nan nan nan nan nan nan nan nan nan nan nan nan nan nan nan nan nan nan nan nan nan nan nan nan nan nan nan 26 28 29 29 28 27 25 19 14 11 10 11 12 17 18 21 23 22 22 22 25 25 23 25 25 25 24 23 22 23 21 17 16 17 17 17 19 19 21 20 18 21 23 22 21 21 22 23 22 21 23 24 nan nan
nan nan nan nan nan nan nan nan nan nan nan nan nan nan nan nan nan nan nan nan nan nan nan nan nan nan nan nan 37 nan nan nan nan 25 24 25 25 23 20 15 12 10 10 12 13 17 19 21 21 20 21 22 24 23 24 25 24 24 23 21 20 21 20 17 17 16 17 18 19 19 19 19 18 21 21 19 20 21 21 22 21 22 25 nan nan nan
nan nan nan nan nan nan nan nan nan nan nan nan nan nan nan nan nan nan nan nan nan nan nan nan nan nan nan nan 35 32 32 31 25 23 21 23 24 19 16 13 9 9 10 13 15 20 22 20 20 20 20 22 21 22 25 25 24 22 21 20 21 21 19 16 17 17 16 19 18 19 18 17 17 18 18 19 19 19 21 21 22 23 24 22 nan nan
nan nan nan nan nan nan nan nan nan nan nan nan nan nan nan nan nan nan nan nan nan nan nan nan nan nan nan nan nan nan 28 27 25 25 24 22 18 13 13 10 9 11 14 16 18 20 21 20 18 19 20 21 22 23 26 25 24 22 21 21 21 17 15 16 18 18 17 18 18 18 17 17 18 17 17 18 18 20 23 23 22 23 22 nan nan nan
nan nan nan nan nan nan nan nan nan nan nan nan nan nan nan nan nan nan nan nan nan nan nan nan nan nan nan nan nan nan 22 22 24 23 18 14 10 12 12 10 10 12 14 16 18 19 20 19 19 20 21 21 21 23 25 25 24 23 21 22 18 13 13 16 20 19 19 17 18 18 16 16 17 17 17 17 18 21 22 21 21 21 nan nan nan nan
nan nan nan nan nan nan nan nan nan nan nan nan nan nan nan nan nan nan nan nan nan nan nan nan nan nan nan nan nan nan 22 22 21 17 15 13 11 11 11 12 12 13 14 16 16 18 19 19 20 21 24 22 21 23 24 24 24 23 21 21 18 14 14 17 19 20 17 15 17 17 14 14 15 16 14 15 17 21 20 19 19 18 nan nan nan nan
nan nan nan nan nan nan nan nan nan nan nan nan nan nan nan nan nan nan nan nan nan nan nan nan nan nan nan nan nan nan 28 24 18 16 16 14 13 10 11 12 15 15 14 15 14 16 18 20 21 22 23 22 23 24 23 24 24 23 22 22 20 17 13 17 20 18 16 14 15 17 16 16 16 16 15 16 17 19 18 nan 18 16 nan nan nan nan
nan nan nan nan nan nan nan nan nan nan nan nan nan nan nan nan nan nan nan nan nan nan nan nan nan nan nan nan nan nan nan 26 25 27 25 19 12 9 11 15 17 18 17 16 16 18 20 20 21 22 22 22 23 23 23 24 23 23 24 23 21 18 15 17 18 16 16 15 16 18 18 18 17 17 17 17 16 17 18 nan 18 17 nan nan nan nan
nan nan nan nan nan nan nan nan nan nan nan nan nan nan nan nan nan nan nan nan nan nan nan nan nan nan nan nan nan nan nan 27 27 24 22 18 14 10 12 15 18 20 21 22 25 25 23 22 23 22 22 22 23 23 23 23 24 25 24 23 22 21 18 17 17 16 17 15 16 17 17 16 17 18 17 17 16 19 nan 20 19 19 nan nan nan nan
nan nan nan nan nan nan nan nan nan nan nan nan nan nan nan nan nan nan nan nan nan nan nan nan nan nan nan nan 31 31 28 26 24 23 21 17 13 11 14 16 18 21 24 27 29 28 27 24 21 20 21 21 22 23 24 25 26 26 25 25 24 22 21 19 17 17 19 18 17 16 17 16 16 17 17 17 18 21 23 22 21 nan nan nan nan nan
nan nan nan nan nan nan nan nan nan nan nan nan nan nan nan nan nan nan nan nan nan nan nan nan nan nan nan 27 28 29 28 27 26 22 22 19 12 12 17 18 16 18 21 25 30 31 28 25 23 23 22 22 23 23 25 26 27 26 25 26 24 23 22 21 18 19 20 19 18 16 17 16 15 17 19 nan 22 24 24 nan nan nan nan nan nan nan
nan nan nan nan nan nan nan nan nan nan nan nan nan nan nan nan nan nan nan nan nan nan nan nan nan nan nan 24 24 24 24 23 21 20 19 18 14 16 18 18 16 15 16 19 23 26 29 28 25 23 23 23 23 24 26 28 28 27 26 28 25 24 22 21 21 21 22 20 19 19 17 18 17 17 19 20 22 24 25 nan nan nan nan nan nan nan
nan nan nan nan nan nan nan nan nan nan nan nan nan nan nan nan nan nan nan nan nan nan nan nan nan nan nan 21 21 21 22 23 21 21 20 18 16 18 19 19 19 16 14 16 18 20 24 27 27 24 22 23 22 23 25 26 28 28 27 28 25 25 24 21 22 22 24 22 19 19 18 18 nan 19 20 22 23 24 nan nan nan nan nan nan nan nan
nan nan nan nan nan nan nan nan nan nan nan nan nan nan nan nan nan nan nan nan nan nan nan nan nan nan nan nan 22 19 21 21 21 19 18 18 19 20 19 20 18 13 10 10 11 15 20 23 24 24 21 21 23 23 24 26 27 27 28 27 27 25 24 24 24 23 25 24 22 20 20 21 21 22 23 23 24 nan nan nan nan nan nan nan nan nan
nan nan nan nan nan nan nan nan nan nan nan nan nan nan nan nan nan nan nan nan nan nan nan nan nan nan nan nan nan 19 19 21 21 20 19 17 18 18 17 17 17 11 7 6 6 7 10 15 20 23 24 24 24 24 25 26 27 27 28 26 27 27 26 26 25 26 25 25 23 22 22 22 23 23 24 24 nan nan nan nan nan nan nan nan nan nan
nan nan nan nan nan nan nan nan nan nan nan nan nan nan nan nan nan nan nan nan nan nan nan nan nan 33 nan nan nan 23 18 18 19 17 15 17 18 17 15 14 17 14 10 7 4 5 6 10 15 19 22 24 25 25 26 27 28 27 29 27 27 28 27 27 27 27 27 28 25 25 25 24 24 24 25 25 nan nan nan nan nan nan nan nan nan nan
nan nan nan nan nan nan nan nan nan nan nan nan nan nan nan nan nan nan nan nan nan nan nan 29 31 nan 32 nan nan 21 16 13 15 15 17 18 17 16 15 14 14 16 15 12 8 9 12 15 18 19 20 22 23 25 26 28 28 27 28 28 28 28 28 28 28 29 29 29 28 27 26 26 26 26 26 nan nan nan nan nan nan nan nan nan nan nan
nan nan nan nan nan nan nan nan nan nan nan nan nan nan nan nan nan nan nan nan nan nan nan nan nan nan nan 28 24 21 18 16 15 15 16 17 15 15 15 14 17 17 18 18 16 17 20 21 21 21 21 23 24 26 27 29 28 26 28 29 28 28 28 29 30 31 31 30 30 28 28 28 28 28 28 nan nan nan nan nan nan nan nan nan nan nan
nan nan nan nan nan nan nan nan nan nan nan nan nan nan nan nan nan nan nan nan nan nan nan nan nan nan 32 28 25 20 19 18 17 17 18 17 17 16 15 15 15 17 20 21 21 23 25 25 25 27 29 31 29 28 29 29 29 29 29 30 29 28 28 31 32 31 32 32 31 31 30 30 30 30 30 nan nan nan nan nan nan nan nan nan nan nan
nan nan nan nan nan nan nan nan nan nan nan nan nan nan nan nan nan nan nan nan nan nan nan nan 24 25 25 27 31 26 22 22 19 16 17 16 17 17 17 16 17 17 19 21 24 25 28 30 32 34 34 35 34 34 32 30 30 30 29 30 30 29 30 31 34 31 32 34 33 32 32 32 32 33 nan nan nan nan nan nan nan nan nan nan nan nan
nan nan nan nan nan nan nan nan nan nan nan nan nan nan nan nan nan nan nan nan nan nan nan nan 24 23 23 24 27 27 24 23 22 19 16 17 18 19 19 19 20 21 22 24 28 29 32 34 34 34 36 37 36 34 32 32 31 32 32 32 33 33 32 33 34 34 35 35 34 33 33 33 34 34 nan nan nan nan nan nan nan nan nan nan nan nan
nan nan nan nan nan nan nan nan nan nan nan nan nan nan nan nan nan nan nan nan nan nan nan nan 27 23 21 19 17 20 23 25 24 23 25 17 19 21 24 24 25 25 25 27 30 33 34 35 33 32 32 30 31 33 34 35 35 35 36 35 34 35 37 37 37 38 37 37 36 35 34 34 35 35 nan nan nan nan nan nan nan nan nan nan nan nan
nan nan nan nan nan nan nan nan nan nan nan nan nan nan nan nan nan nan nan nan nan 36 nan nan 26 22 21 19 16 15 17 21 19 16 14 15 17 20 22 26 28 30 31 31 32 33 32 31 29 26 26 27 28 30 32 34 34 34 34 34 34 35 35 36 37 38 38 38 37 37 36 34 35 nan nan nan nan nan nan nan nan nan nan nan nan nan
nan nan nan nan nan nan nan nan nan nan nan nan nan nan nan nan nan nan nan nan nan 32 33 nan 27 23 20 19 18 17 18 21 19 16 10 10 12 14 18 23 27 28 29 29 29 28 28 27 27 27 27 28 27 27 29 30 30 29 29 30 31 31 32 32 34 35 37 38 38 37 35 35 37 37 nan nan nan nan nan nan nan nan nan nan nan nan
nan nan nan nan nan nan nan nan nan nan nan nan nan nan nan nan nan nan nan nan nan 28 30 29 27 25 23 21 21 23 27 25 24 24 16 10 10 15 20 24 25 25 26 25 25 26 28 30 33 33 31 26 23 27 29 29 28 26 26 28 31 31 30 31 32 33 nan 37 nan nan 37 34 34 nan nan nan nan nan nan nan nan nan nan nan nan nan
nan nan nan nan nan nan nan nan nan nan nan nan nan nan nan nan nan nan nan 27 25 26 nan 25 25 26 26 26 24 26 26 25 24 25 21 15 15 16 21 22 21 22 23 23 24 29 29 30 31 32 31 25 25 26 28 27 28 28 28 30 30 30 30 31 33 nan nan 35 nan nan 36 36 35 36 nan nan nan nan 32 nan nan nan nan nan nan nan
nan nan nan nan nan nan nan nan nan nan nan nan nan nan nan nan nan nan 27 26 26 26 25 22 22 23 24 26 31 31 28 26 27 25 20 15 14 17 21 24 25 24 25 26 27 27 28 27 28 30 29 28 27 27 27 28 29 30 31 32 32 33 33 34 34 33 33 35 34 nan nan nan 34 nan nan nan nan 31 29 nan nan nan nan nan nan nan
nan nan nan nan nan nan nan nan nan nan nan 28 nan nan nan nan 23 24 23 25 24 26 25 22 20 20 21 25 31 32 33 33 34 32 27 24 21 24 24 26 26 26 26 30 27 27 30 30 30 31 32 32 31 30 29 30 32 33 35 34 36 39 38 36 35 nan 34 35 nan nan nan nan nan nan nan nan nan nan nan nan nan nan nan nan nan nan
nan nan nan nan nan nan nan nan 25 25 28 29 nan 27 28 28 25 23 23 25 25 26 26 24 22 21 20 22 26 28 31 34 34 33 32 30 31 30 29 28 29 28 31 31 31 32 32 34 33 35 34 34 34 33 33 34 35 36 36 38 38 nan 34 34 35 nan nan 36 35 nan nan nan nan nan 31 nan nan nan nan nan nan nan nan nan nan nan
nan nan nan nan nan nan 19 20 23 25 24 27 26 29 28 28 25 24 24 25 25 26 25 28 28 24 22 23 24 25 25 27 28 27 27 25 27 30 32 31 29 28 29 32 33 34 34 36 37 38 37 36 36 35 36 35 36 38 38 37 37 nan 33 33 nan nan nan nan nan 34 34 34 33 32 31 nan nan nan nan nan nan nan nan nan nan nan
nan nan nan 22 20 15 16 18 19 22 24 27 26 26 27 28 25 22 24 27 29 27 27 31 30 29 26 24 25 25 25 25 25 25 26 26 27 30 31 32 31 29 30 33 34 33 33 35 37 37 38 37 36 37 36 34 35 35 37 39 36 34 34 36 nan 35 nan nan 36 36 nan nan nan nan nan nan nan nan nan nan nan nan nan nan nan nan
nan nan nan 20 19 19 19 21 23 24 24 26 27 27 25 26 28 25 26 27 27 28 29 31 32 32 31 28 29 30 29 27 27 29 30 30 29 29 29 30 30 29 29 29 31 33 35 36 37 37 37 37 36 37 36 35 35 37 39 38 37 35 35 36 36 36 36 36 35 nan nan nan nan nan nan nan nan nan nan nan nan nan nan nan nan nan
nan nan 22 nan nan 20 19 20 21 21 20 22 22 26 28 30 29 27 23 23 24 27 29 31 30 34 31 34 33 32 32 31 29 30 31 31 30 30 30 30 30 30 28 30 33 32 35 35 36 37 38 38 38 37 36 38 38 39 39 39 40 40 39 37 35 35 nan nan nan nan nan nan nan nan nan nan nan nan nan nan nan nan nan nan nan nan
nan nan 21 nan 22 23 21 23 23 21 25 25 24 22 24 24 24 25 26 24 25 27 28 30 33 33 34 36 33 34 35 33 31 30 32 33 32 31 30 30 30 31 32 34 33 34 35 35 35 36 38 40 40 41 40 41 42 43 42 42 42 42 42 39 37 nan nan nan 36 36 nan nan nan nan nan nan nan nan nan nan nan nan nan nan nan nan
nan nan nan nan 23 24 23 23 24 20 20 21 24 27 27 26 23 23 24 25 27 28 27 28 30 31 32 34 33 33 35 34 33 32 32 33 32 31 31 31 31 32 32 33 33 33 35 35 37 37 38 40 42 43 44 44 45 45 45 nan 47 47 46 45 40 37 36 35 nan nan nan nan nan nan nan nan nan nan nan nan nan nan nan nan nan nan
29 nan nan nan 26 26 25 26 nan nan 23 22 22 25 26 26 25 26 26 26 27 29 28 29 30 32 34 34 32 32 33 32 33 32 33 31 31 31 31 32 31 31 33 33 34 34 35 35 36 36 37 38 41 43 44 46 48 48 50 51 51 50 50 49 46 41 39 38 nan nan nan nan nan nan nan nan nan nan nan nan nan nan nan nan nan nan
Wind_Direction
nan nan nan nan nan nan nan nan nan nan nan nan nan nan nan nan nan nan nan nan nan nan nan nan nan nan nan nan 237 241 241 234 232 231 229 232 236 239 244 252 262 268 261 256 259 258 259 259 257 257 257 266 273 276 279 281 279 280 279 278 277 276 279 283 282 278 278 274 268 266 256 243 236 230 230 230 234 239 241 248 253 257 260 264 263 264
nan nan nan nan nan nan nan nan nan nan nan nan nan nan nan nan nan nan nan nan nan nan nan nan nan nan nan nan 235 238 242 237 237 235 234 235 238 242 249 254 258 250 241 250 249 250 254 253 261 257 253 264 275 273 277 279 278 277 279 279 276 275 281 280 274 272 273 263 261 256 248 244 238 234 236 239 240 242 246 250 255 258 258 258 260 261
nan nan nan nan nan nan nan nan nan nan nan nan nan nan nan nan nan nan nan nan nan nan nan nan nan nan nan nan 232 238 241 237 238 237 234 238 238 239 240 243 242 240 243 246 247 248 247 254 259 256 252 257 268 273 278 278 275 277 280 278 280 279 280 274 273 271 266 260 259 256 252 251 240 231 237 245 246 247 250 252 253 255 257 259 259 258
nan nan nan nan nan nan nan nan nan nan nan nan nan nan nan nan nan nan nan nan nan nan nan nan nan nan nan nan 226 231 235 231 231 228 222 223 227 231 233 234 232 228 232 242 248 250 250 252 253 251 252 257 262 268 270 274 276 277 280 281 284 282 280 274 267 258 254 253 248 248 254 251 244 243 245 247 250 248 247 248 248 251 255 258 257 255
nan nan nan nan nan nan nan nan nan nan nan nan nan nan nan nan nan nan nan nan nan nan nan nan nan nan nan nan 224 225 226 223 226 227 223 222 221 223 222 221 220 219 230 239 245 250 251 252 253 252 250 257 265 267 270 273 277 275 286 288 286 282 277 266 258 257 255 253 249 244 241 243 243 244 244 246 244 240 244 250 250 251 253 256 257 256
nan nan nan nan nan nan nan nan nan nan nan nan nan nan nan nan nan nan nan nan nan nan nan nan nan nan nan nan nan 228 227 224 226 230 229 228 228 230 226 218 217 220 229 240 247 253 255 251 247 248 259 265 266 266 267 270 279 288 293 291 283 270 265 258 259 262 262 266 263 254 251 249 246 251 253 255 255 249 249 252 255 254 252 254 255 254
nan nan nan nan nan nan nan nan nan nan nan nan nan nan nan nan nan nan nan nan nan nan nan nan nan nan nan nan nan 227 230 227 227 227 228 228 225 224 214 208 217 223 234 241 243 251 258 254 253 261 265 265 265 265 267 270 279 288 290 287 267 258 252 256 262 271 263 256 256 262 264 263 260 260 252 248 248 253 253 255 257 255 251 250 252 252
nan nan nan nan nan nan nan nan nan nan nan nan nan nan nan nan nan nan nan nan nan nan nan nan nan nan nan nan nan 229 232 229 228 223 222 223 223 214 202 213 221 227 236 245 249 257 258 255 255 264 264 263 265 265 267 272 274 283 282 267 257 251 252 257 265 269 261 261 261 266 268 261 255 255 259 257 254 254 254 251 251 253 251 250 251 nan
nan nan nan nan nan nan nan nan nan nan nan nan nan nan nan nan nan nan nan nan nan nan nan nan nan nan nan nan nan nan 229 227 228 223 215 210 208 200 200 213 219 228 239 249 249 252 253 254 248 252 261 264 266 265 267 271 271 270 266 255 255 257 258 261 268 269 275 265 256 259 261 257 253 256 259 260 257 252 250 253 248 248 251 253 nan 254
nan nan nan nan nan nan nan nan nan nan nan nan nan nan nan nan nan nan nan nan nan nan nan nan nan nan nan nan nan nan nan nan 228 222 212 203 191 185 198 208 215 226 234 245 247 247 245 244 238 248 259 263 265 265 265 268 266 263 258 260 261 271 265 266 273 276 275 269 264 263 258 259 256 257 259 260 257 254 249 248 248 248 251 254 253 251
nan nan nan nan nan nan nan nan nan nan nan nan nan nan nan nan nan nan nan nan nan nan nan nan nan nan nan nan nan nan nan 234 234 224 212 201 189 193 204 214 219 227 240 241 249 249 244 242 242 254 263 265 264 265 264 262 263 261 264 269 276 275 269 276 278 272 267 270 269 264 268 273 273 269 264 259 253 255 253 248 246 248 251 250 250 250
nan nan nan nan nan nan nan nan nan nan nan nan nan nan nan nan nan nan nan nan nan nan nan nan nan nan nan nan nan nan 226 233 239 233 226 215 203 209 224 229 226 232 244 248 251 250 251 251 251 255 264 268 268 264 266 266 262 262 264 270 275 272 275 265 259 263 267 265 267 263 264 268 272 274 269 268 264 256 257 253 250 250 253 248 246 250
nan nan nan nan nan nan nan nan nan nan nan nan nan nan nan nan nan nan nan nan nan nan nan nan nan nan nan nan nan nan 221 218 222 218 214 210 206 223 234 239 232 237 247 255 255 246 249 251 253 262 265 264 268 261 263 266 262 263 266 268 268 266 275 263 262 274 270 262 261 268 272 271 266 267 267 266 260 253 253 250 252 256 257 253 250 250
nan nan nan nan nan nan nan nan nan nan nan nan nan nan nan nan nan nan nan nan nan nan nan nan nan nan nan nan nan nan 217 215 213 198 198 205 213 224 234 235 230 235 246 252 253 245 254 251 256 264 264 263 259 258 259 262 261 262 262 264 260 263 261 262 264 270 276 272 273 275 277 269 264 260 259 257 256 255 251 248 258 264 261 257 254 nan
nan nan nan nan nan nan nan nan nan nan nan nan nan nan nan nan nan nan nan nan nan nan nan nan nan nan nan nan nan nan nan 200 200 199 206 208 210 215 219 220 220 227 239 247 252 251 251 254 260 264 260 256 255 261 264 263 264 264 260 259 262 267 271 282 273 276 285 280 273 269 271 264 256 259 253 249 250 250 248 250 260 261 260 nan nan nan
nan nan nan nan nan nan nan nan nan nan nan nan nan nan nan nan nan nan nan nan nan nan nan nan nan nan nan nan nan nan nan nan 203 205 210 212 215 220 219 218 217 224 242 247 252 245 250 254 257 257 255 253 255 265 264 268 263 263 257 260 265 273 278 281 286 287 278 270 268 261 259 266 258 255 253 249 243 242 249 255 257 256 257 256 nan nan
nan nan nan nan nan nan nan nan nan nan nan nan nan nan nan nan nan nan nan nan nan nan nan nan nan nan nan nan 211 nan nan nan nan 212 212 215 220 225 224 227 236 245 253 252 253 244 248 252 254 254 250 253 257 262 267 267 266 266 260 257 264 270 270 275 279 274 264 260 269 264 267 269 262 258 260 256 254 257 256 253 251 252 253 nan nan nan
nan nan nan nan nan nan nan nan nan nan nan nan nan nan nan nan nan nan nan nan nan nan nan nan nan nan nan nan 208 208 211 210 211 216 215 219 222 227 228 240 258 271 265 261 254 244 238 243 252 247 246 250 260 265 265 268 262 259 251 255 259 265 268 265 263 259 262 274 268 265 262 257 258 254 250 249 255 259 258 247 245 248 248 248 nan nan
nan nan nan nan nan nan nan nan nan nan nan nan nan nan nan nan nan nan nan nan nan nan nan nan nan nan nan nan nan nan 212 211 210 216 219 222 224 230 239 251 262 264 260 259 259 251 243 244 249 249 251 256 258 260 265 263 255 254 249 252 256 265 272 269 248 258 271 276 271 265 260 257 254 250 247 246 251 253 251 247 243 244 246 nan nan nan
nan nan nan nan nan nan nan nan nan nan nan nan nan nan nan nan nan nan nan nan nan nan nan nan nan nan nan nan nan nan 209 215 221 222 218 226 240 242 243 253 270 275 274 271 265 258 248 248 253 253 254 256 259 258 261 260 251 252 255 257 259 251 254 253 258 267 278 275 273 264 249 244 246 246 246 248 250 245 244 245 248 250 nan nan nan nan
nan nan nan nan nan nan nan nan nan nan nan nan nan nan nan nan nan nan nan nan nan nan nan nan nan nan nan nan nan nan 207 210 223 224 212 214 228 237 246 256 262 270 268 268 268 262 257 256 255 252 247 248 252 253 255 255 253 254 258 263 264 265 244 249 261 275 271 267 270 264 249 250 249 247 247 252 245 246 247 249 251 247 nan nan nan nan
nan nan nan nan nan nan nan nan nan nan nan nan nan nan nan nan nan nan nan nan nan nan nan nan nan nan nan nan nan nan 201 210 209 210 207 217 228 229 236 247 250 251 256 263 265 259 251 254 254 253 255 252 252 250 255 254 253 257 257 261 267 266 261 259 260 269 274 273 273 259 253 263 256 253 261 263 251 249 252 nan 248 248 nan nan nan nan
nan nan nan nan nan nan nan nan nan nan nan nan nan nan nan nan nan nan nan nan nan nan nan nan nan nan nan nan nan nan nan 198 202 202 205 211 212 218 231 241 242 242 248 253 253 242 237 247 246 247 258 258 252 249 252 253 255 257 259 261 269 272 266 263 262 260 264 270 261 256 259 271 267 262 265 261 251 253 249 nan 246 243 nan nan nan nan
nan nan nan nan nan nan nan nan nan nan nan nan nan nan nan nan nan nan nan nan nan nan nan nan nan nan nan nan nan nan nan 200 202 200 205 202 198 209 238 242 246 245 243 245 238 233 235 242 244 248 256 256 249 247 250 250 255 257 258 264 270 274 273 262 260 269 273 271 269 265 264 266 271 272 265 260 250 254 nan 247 243 242 nan nan nan nan
nan nan nan nan nan nan nan nan nan nan nan nan nan nan nan nan nan nan nan nan nan nan nan nan nan nan nan nan 195 197 203 204 205 202 203 204 194 213 232 235 238 242 239 241 241 240 238 244 253 255 255 254 251 246 247 251 254 257 262 267 273 271 275 279 276 283 287 288 283 274 271 269 266 271 269 261 253 253 252 251 248 nan nan nan nan nan
nan nan nan nan nan nan nan nan nan nan nan nan nan nan nan nan nan nan nan nan nan nan nan nan nan nan nan 189 191 201 205 204 201 201 193 194 207 226 228 229 237 242 237 239 239 240 242 245 245 248 251 248 247 247 248 251 253 255 261 264 259 266 277 288 279 285 288 288 287 279 278 276 272 272 270 nan 258 260 258 nan nan nan nan nan nan nan
nan nan nan nan nan nan nan nan nan nan nan nan nan nan nan nan nan nan nan nan nan nan nan nan nan nan nan 187 182 191 199 203 207 204 200 196 208 226 229 228 228 233 243 254 249 242 236 237 248 249 250 251 249 248 248 252 256 256 254 255 260 265 266 270 279 285 287 286 286 284 284 282 278 274 272 269 266 263 264 nan nan nan nan nan nan nan
nan nan nan nan nan nan nan nan nan nan nan nan nan nan nan nan nan nan nan nan nan nan nan nan nan nan nan 178 172 183 190 197 201 204 202 200 213 227 229 229 230 235 248 252 258 253 240 239 244 248 255 258 252 251 252 252 253 259 261 258 257 263 265 266 275 284 286 287 282 281 277 269 nan 272 272 269 270 272 nan nan nan nan nan nan nan nan
nan nan nan nan nan nan nan nan nan nan nan nan nan nan nan nan nan nan nan nan nan nan nan nan nan nan nan nan 174 180 185 191 198 202 204 207 215 224 232 234 241 251 268 280 278 263 244 240 242 248 260 261 258 258 258 253 251 259 254 264 256 260 265 268 273 277 281 283 281 274 272 269 266 268 273 274 275 nan nan nan nan nan nan nan nan nan
nan nan nan nan nan nan nan nan nan nan nan nan nan nan nan nan nan nan nan nan nan nan nan nan nan nan nan nan nan 178 187 190 193 200 207 212 218 229 237 244 241 242 253 263 271 274 256 248 247 250 254 259 262 263 262 256 256 256 260 263 257 260 261 264 267 272 274 276 276 276 277 274 271 275 277 279 nan nan nan nan nan nan nan nan nan nan
nan nan nan nan nan nan nan nan nan nan nan nan nan nan nan nan nan nan nan nan nan nan nan nan nan 159 nan nan nan 180 188 186 185 194 206 213 219 229 242 253 243 234 232 243 247 274 277 262 255 255 257 262 266 268 264 262 260 259 255 260 257 257 263 264 262 266 271 273 275 276 277 276 275 276 281 282 nan nan nan nan nan nan nan nan nan nan
nan nan nan nan nan nan nan nan nan nan nan nan nan nan nan nan nan nan nan nan nan nan nan 192 170 nan 174 nan nan 178 186 183 184 189 199 204 215 231 248 247 249 237 232 237 257 283 283 273 265 264 266 270 269 268 264 260 260 259 256 255 254 256 263 262 261 263 266 271 274 275 276 274 277 278 279 nan nan nan nan nan nan nan nan nan nan nan
nan nan nan nan nan nan nan nan nan nan nan nan nan nan nan nan nan nan nan nan nan nan nan nan nan nan nan 177 183 180 184 184 189 192 197 206 219 236 248 250 237 240 243 246 264 285 289 282 275 268 264 262 262 258 256 253 252 258 256 256 253 257 263 263 260 262 265 268 271 273 272 274 275 275 275 nan nan nan nan nan nan nan nan nan nan nan
nan nan nan nan nan nan nan nan nan nan nan nan nan nan nan nan nan nan nan nan nan nan nan nan nan nan 177 180 183 183 185 185 190 193 197 207 220 232 243 246 253 249 246 253 266 275 279 278 271 258 250 243 249 255 250 250 249 249 255 259 258 262 261 264 265 267 271 271 272 273 273 273 273 274 273 nan nan nan nan nan nan nan nan nan nan nan
nan nan nan nan nan nan nan nan nan nan nan nan nan nan nan nan nan nan nan nan nan nan nan nan 182 178 178 183 183 184 186 191 191 201 205 212 222 232 244 254 264 270 269 268 268 274 276 274 266 256 247 243 243 244 247 247 249 255 259 263 264 261 264 266 270 271 274 275 274 273 273 272 272 273 nan nan nan nan nan nan nan nan nan nan nan nan
nan nan nan nan nan nan nan nan nan nan nan nan nan nan nan nan nan nan nan nan nan nan nan nan 178 174 175 179 187 191 195 201 203 204 210 213 222 234 247 255 271 275 278 273 273 271 272 263 262 258 249 244 244 245 247 250 254 259 262 264 262 263 264 270 273 276 275 275 275 274 272 273 272 273 nan nan nan nan nan nan nan nan nan nan nan nan
nan nan nan nan nan nan nan nan nan nan nan nan nan nan nan nan nan nan nan nan nan nan nan nan 187 184 186 186 193 203 209 214 213 208 201 221 232 238 248 259 267 270 271 271 273 268 260 257 260 265 267 264 259 255 253 255 261 265 268 266 261 263 264 267 272 276 277 276 277 274 274 273 273 274 nan nan nan nan nan nan nan nan nan nan nan nan
nan nan nan nan nan nan nan nan nan nan nan nan nan nan nan nan nan nan nan nan nan 200 nan nan 196 199 200 200 203 214 222 219 214 212 220 221 243 247 249 254 259 259 261 264 264 260 258 259 262 266 262 264 264 264 261 259 260 265 270 270 269 270 268 270 273 274 276 277 274 273 273 273 273 nan nan nan nan nan nan nan nan nan nan nan nan nan
nan nan nan nan nan nan nan nan nan nan nan nan nan nan nan nan nan nan nan nan nan 209 208 nan 205 204 206 213 214 223 218 217 219 229 251 243 243 246 248 244 248 254 259 264 267 266 263 262 266 265 271 280 276 264 263 266 267 269 273 277 278 276 277 275 276 278 277 275 276 279 279 278 273 273 nan nan nan nan nan nan nan nan nan nan nan nan
nan nan nan nan nan nan nan nan nan nan nan nan nan nan nan nan nan nan nan nan nan 208 210 211 211 212 209 217 222 213 213 220 224 224 237 252 255 247 246 243 245 251 257 262 262 264 263 261 260 265 276 280 270 264 266 265 268 273 272 273 273 274 273 270 267 265 nan 265 nan nan 268 270 273 nan nan nan nan nan nan nan nan nan nan nan nan nan
nan nan nan nan nan nan nan nan nan nan nan nan nan nan nan nan nan nan nan 205 201 204 nan 213 217 218 218 223 221 224 220 223 214 206 205 234 240 242 240 243 247 250 255 258 259 256 258 261 266 272 282 277 265 258 261 266 270 272 271 273 280 276 271 272 271 nan nan 266 nan nan 268 269 273 273 nan nan nan nan 285 nan nan nan nan nan nan nan
nan nan nan nan nan nan nan nan nan nan nan nan nan nan nan nan nan nan 205 203 202 202 219 220 225 225 226 224 222 220 219 211 205 210 226 244 246 242 243 242 242 243 244 249 255 259 259 262 262 265 268 267 266 262 263 270 274 276 275 274 275 274 269 271 275 276 271 266 270 nan nan nan 272 nan nan nan nan 284 283 nan nan nan nan nan nan nan
nan nan nan nan nan nan nan nan nan nan nan 200 nan nan nan nan 208 205 209 206 208 206 210 221 229 235 233 230 225 226 221 217 218 229 240 241 237 233 236 242 250 253 253 249 255 259 261 259 259 260 262 260 264 264 268 274 279 278 275 277 275 272 273 274 275 nan 272 268 nan nan nan nan nan nan nan nan nan nan nan nan nan nan nan nan nan nan
nan nan nan nan nan nan nan nan 193 192 187 196 nan 205 201 207 208 212 212 215 210 211 214 219 222 230 235 236 236 233 231 230 231 238 245 240 235 233 233 240 249 256 252 254 258 258 260 259 258 258 261 263 265 268 270 274 275 275 272 267 265 nan 274 275 273 nan nan 273 276 nan nan nan nan nan 274 nan nan nan nan nan nan nan nan nan nan nan
nan nan nan nan nan nan 187 188 186 186 185 190 194 198 203 204 204 210 211 217 220 218 213 219 224 230 234 236 236 237 235 234 239 241 243 244 242 243 244 247 255 257 258 257 256 257 258 259 261 258 260 261 266 266 268 270 273 273 273 269 271 nan 277 276 nan nan nan nan nan 276 273 272 273 276 278 nan nan nan nan nan nan nan nan nan nan nan
nan nan nan 182 190 178 181 178 173 182 187 191 198 196 199 206 212 211 211 219 218 220 218 221 220 226 232 234 233 232 232 236 239 241 240 241 241 242 245 247 249 252 256 255 256 258 256 257 258 260 260 258 259 258 259 260 265 271 266 266 273 276 277 277 nan 276 nan nan 273 276 nan nan nan nan nan nan nan nan nan nan nan nan nan nan nan nan
nan nan nan 193 190 189 194 181 190 186 182 191 191 197 204 207 208 207 212 218 219 224 226 224 223 224 226 229 227 226 228 233 234 238 242 244 245 247 248 250 251 255 261 261 259 258 253 255 254 255 255 255 253 252 253 255 252 254 259 266 273 278 278 276 276 276 277 279 279 nan nan nan nan nan nan nan nan nan nan nan nan nan nan nan nan nan
nan nan 194 nan nan 201 207 198 188 187 188 187 193 198 204 202 207 213 215 215 215 220 223 225 227 230 227 229 227 228 229 233 234 239 244 247 250 251 252 253 256 258 261 262 261 261 259 258 258 257 256 253 251 252 253 252 253 255 257 264 273 279 281 279 279 278 nan nan nan nan nan nan nan nan nan nan nan nan nan nan nan nan nan nan nan nan
nan nan 201 nan 211 215 212 208 204 215 208 205 202 204 203 204 203 208 209 209 215 219 218 221 224 226 228 231 230 233 234 236 237 240 246 250 252 253 255 258 263 268 269 265 265 265 265 264 263 264 262 257 254 254 254 255 255 257 264 269 273 277 281 280 278 nan nan nan 277 281 nan nan nan nan nan nan nan nan nan nan nan nan nan nan nan nan
nan nan nan nan 222 220 215 212 202 212 215 213 207 207 205 207 205 205 209 212 215 219 218 220 217 219 225 228 231 233 235 235 238 242 246 249 251 255 258 260 265 269 269 267 266 267 265 268 268 268 265 260 259 258 257 257 256 259 266 nan 275 275 274 276 277 277 275 274 nan nan nan nan nan nan nan nan nan nan nan nan nan nan nan nan nan nan
217 nan nan nan 219 221 218 211 nan nan 212 214 211 210 213 213 213 214 218 218 221 225 223 223 223 218 218 220 224 227 232 234 236 240 243 246 249 254 259 265 268 270 268 267 267 267 267 265 265 266 267 263 261 260 260 259 260 261 264 268 271 272 271 273 273 272 269 271 nan nan nan nan nan nan nan nan nan nan nan nan nan nan nan nan nan nan